[[[{"header":{"parameterUnit":"kt","parameterCategory":2,"dx":1,"dy":1,"la1":30.253999710083008,"la2":30.299108505249023,"lo1":-89.0895004272461,"lo2":-89.04439544677734,"nx":28,"ny":28,"refTime":"2022-10-20T21:00:00:Z","depth":0,"parameterNumber":1,"parameterNumberName":"U-component_of_WINDS"},"data":[5.4227,5.432,5.4334,5.4445,5.4476,5.4552,5.4584,5.4625,5.4661,5.4751,5.4805,5.4826,5.4864,5.4929,5.4985,5.4992,5.5013,5.5035,5.5039,5.4933,5.4919,5.4905,5.4883,5.5041,5.5041,5.5146,5.5147,5.5148,5.4141,5.4173,5.4238,5.4309,5.4363,5.4349,5.4404,5.4448,5.4517,5.4562,5.4617,5.4697,5.4761,5.4793,5.4855,5.4895,5.489,5.491,5.4905,5.491,5.4798,5.4775,5.4913,5.4912,5.4912,5.4912,5.4912,5.4912,5.3987,5.4044,5.4096,5.4166,5.4206,5.4253,5.4307,5.4334,5.4395,5.4466,5.447,5.4547,5.4593,5.4675,5.4706,5.4763,5.4742,5.4767,5.4773,5.4777,5.478,5.4618,5.4775,5.4775,5.4774,5.4774,5.4774,0,5.3878,5.3886,5.395,5.4018,5.407,5.4123,5.4174,5.4208,5.4228,5.4278,5.435,5.4394,5.4478,5.4545,5.4608,5.4634,5.4621,5.4624,5.464,5.4636,5.4623,5.4625,5.4437,5.4618,5.4616,5.4616,5.4615,5.4614,5.3719,5.3786,5.3849,5.3891,5.3923,5.3993,5.4036,5.405,5.4094,5.4157,5.4205,5.4274,5.433,5.4442,5.4469,5.4531,5.4525,5.4591,5.4534,5.4527,5.4519,5.4513,5.4517,5.4601,5.4602,5.4604,5.4605,0,5.3627,5.3652,5.376,5.3816,5.3831,5.3899,5.3944,5.4001,5.4021,5.4101,5.412,5.415,5.422,5.4238,5.4322,5.4327,5.443,5.4425,5.4412,5.441,5.4468,5.446,5.4663,5.4688,5.453,5.4531,5.4533,0,5.3499,5.3587,5.3617,5.3679,5.3774,5.3787,5.388,5.3907,5.3951,5.4013,5.4005,5.4064,5.4078,5.4138,5.4148,5.4236,5.4253,5.4261,5.4261,5.4259,5.4257,5.4278,5.4268,5.4268,5.4266,5.4266,5.4265,0,5.3349,5.3471,5.3571,5.3602,5.3671,5.3717,5.3747,5.3797,5.3839,5.3897,5.3924,5.399,5.4026,5.4075,5.4087,5.4046,5.4197,5.4143,5.4204,5.4203,5.4233,5.423,5.4409,5.4263,5.4263,5.4263,5.4262,0,5.3248,5.3311,5.3456,5.3511,5.3542,5.3609,5.3676,5.3738,5.379,5.3801,5.3847,5.3843,5.3926,5.387,5.3982,5.3926,5.396,5.3976,5.3981,5.3985,5.3922,5.4014,5.4188,5.4204,5.3993,5.3991,5.3989,0,5.3066,5.322,5.3233,5.337,5.3443,5.3428,5.3502,5.3551,5.3572,5.3634,5.3657,5.3729,5.3692,5.3717,5.3771,5.3795,5.3869,5.3787,5.3868,5.387,5.3849,5.4011,5.4029,5.4149,5.3961,5.3964,5.3966,0,5.2928,5.3015,5.3039,5.3074,5.3144,5.3206,5.3292,5.3367,5.3407,5.3465,5.3534,5.3638,5.3612,5.3654,5.3658,5.3713,5.3819,5.3678,5.3679,5.3698,5.3951,5.3967,5.3988,5.3809,5.3813,5.3815,5.3944,0,5.276,5.2843,5.2911,5.2992,5.3044,5.3134,5.3156,5.3207,5.3206,5.3227,5.3331,5.3377,5.3452,5.3483,5.3483,5.3605,5.3586,5.3559,5.3503,5.3611,5.3653,5.3671,5.3438,5.3437,5.3436,5.3434,0,0,5.2576,5.2696,5.271,5.2796,5.284,5.2824,5.2917,5.2958,5.3041,5.307,5.304,5.3192,5.3231,5.3355,5.339,5.3423,5.3445,5.3407,5.3561,5.3575,5.3588,5.3633,5.3652,5.3432,5.3432,5.3431,5.3431,0,5.2519,5.2566,5.266,5.2704,5.2769,5.2789,5.2811,5.2873,5.289,5.2997,5.2979,5.3045,5.3169,5.3209,5.3246,5.3394,5.3375,5.3416,5.3486,5.3548,5.3564,5.3578,5.3625,5.3642,5.3428,5.3428,5.3428,0,5.2384,5.2431,5.248,5.2585,5.2628,5.2705,5.2653,5.2739,5.2795,5.2772,5.2876,5.2905,5.2963,5.3081,5.3134,5.3108,5.331,5.3253,5.3261,5.3266,5.3326,5.3345,5.3362,5.3139,5.3138,5.3137,0,0,5.2331,5.241,5.2465,5.2575,5.2603,5.2634,5.2678,5.2682,5.2737,5.276,5.2796,5.2848,5.2919,5.2966,5.3034,5.3161,5.3171,5.3216,5.323,5.3241,5.3252,5.3315,5.3334,5.3133,5.3133,5.3132,0,0,5.2305,5.2374,5.2364,5.2495,5.255,5.2609,5.2674,5.2662,5.2727,5.2719,5.2728,5.2742,5.2853,5.2882,5.2824,5.3013,5.2959,5.2973,5.299,5.3008,5.3021,5.301,5.2774,0,0,0,0,0,5.2259,5.2365,5.2356,5.2381,5.2514,5.2615,5.2631,5.2643,5.2602,5.2653,5.2681,5.266,5.2851,5.28,5.2824,5.2887,5.3079,5.3089,5.3098,5.315,5.3168,5.3183,0,0,0,0,0,0,5.2269,5.23,5.2353,5.2417,5.2447,5.2611,5.2545,5.2551,5.2597,5.2592,5.2655,5.2662,5.2672,5.2789,5.281,5.287,5.2767,5.3083,5.3091,5.3098,5.3156,5.3171,5.3184,0,0,0,0,0,5.2277,5.2302,5.2513,5.2416,5.2442,5.2482,5.2541,5.2546,5.2581,5.2626,5.2632,5.2586,5.2673,5.2692,5.2801,5.286,5.2753,5.276,5.3088,5.3095,5.31,5.3163,0,0,0,0,0,0,5.2283,5.2306,5.2518,5.2526,5.2377,5.2473,5.2488,5.2541,5.2613,5.262,5.2556,5.2551,5.2676,5.269,5.2704,5.2856,5.2741,5.2749,5.2754,5.3093,5.3098,5.3102,0,0,0,0,0,0,5.2292,5.2313,5.2522,5.2473,5.2476,5.2464,5.2478,5.2573,5.2614,5.2539,5.2537,5.2553,5.2653,5.2689,5.27,5.2848,5.2731,5.2739,5.2744,5.2748,5.3097,5.3101,0,0,0,0,0,0,5.2301,5.2319,5.2471,5.2473,5.2475,5.2567,5.2548,5.2682,5.2574,5.2536,5.2565,5.256,5.2653,5.2664,5.2697,5.284,5.2846,5.2732,5.2737,5.2741,5.2743,0,0,0,0,0,0,0,5.2308,5.2188,5.247,5.2473,5.2475,5.2602,5.2604,5.2606,5.2573,5.257,5.2566,5.2562,5.2688,5.2696,5.2705,5.2834,0,0,5.2731,5.2735,0,0,0,0,0,0,0,0,5.218,5.2186,5.247,5.2472,5.2474,5.2602,5.2604,5.2606,5.2573,5.257,5.2567,5.2564,5.269,5.2697,5.2704,0,0,0,0,0,0,0,0,0,0,0,0,0,0,0,5.2471,5.2472,0,5.2602,5.2604,5.2605,5.2572,5.257,5.2567,5.2565,5.2692,5.2697,5.2703,0,0,0,0,0,0,0,0,0,0,0,0,0,0,0,0,0,0,0,0,0,0,0,0,0,0,0,0,0,0,0,0,0,0,0,0,0,0,0,0,0,0,0,0,0,0,0,0,0,0,0,0,0,0,0,0,0,0,0,0,0,0,0,0,0,0,0,0,0]}],[{"header":{"parameterUnit":"kt","parameterCategory":2,"dx":1,"dy":1,"la1":30.253999710083008,"la2":30.299108505249023,"lo1":-89.0895004272461,"lo2":-89.04439544677734,"nx":28,"ny":28,"refTime":"2022-10-20T21:00:00:Z","depth":0,"parameterNumber":2,"parameterNumberName":"V-component_of_WINDS"},"data":[1.2604,1.2634,1.2634,1.2667,1.2674,1.2697,1.2705,1.2716,1.2726,1.2753,1.2769,1.2774,1.2784,1.2804,1.2821,1.2823,1.283,1.2837,1.2838,1.2803,1.2798,1.2793,1.2786,1.2839,1.2839,1.2875,1.2875,1.2875,1.2571,1.2578,1.2596,1.2616,1.2631,1.2623,1.2638,1.2652,1.2673,1.2686,1.2703,1.2727,1.2747,1.2756,1.2776,1.2789,1.2787,1.2794,1.2793,1.2795,1.2757,1.2749,1.2795,1.2795,1.2795,1.2795,1.2795,1.2795,1.2511,1.2529,1.2542,1.2563,1.2573,1.2586,1.2604,1.261,1.2629,1.2651,1.265,1.2675,1.2688,1.2715,1.2725,1.2744,1.2737,1.2746,1.2748,1.275,1.2751,1.2695,1.2748,1.2748,1.2747,1.2747,1.2747,0,1.2467,1.2467,1.2487,1.2506,1.2522,1.2538,1.2553,1.2564,1.2568,1.2584,1.2607,1.2621,1.2649,1.2671,1.2691,1.2701,1.2697,1.2697,1.2703,1.2703,1.2699,1.27,1.2636,1.2697,1.2696,1.2696,1.2696,1.2695,1.2406,1.2428,1.2445,1.2458,1.2467,1.249,1.2503,1.2505,1.252,1.2539,1.2556,1.2579,1.2598,1.2635,1.2645,1.2666,1.2665,1.2687,1.2668,1.2666,1.2664,1.2662,1.2663,1.2691,1.2691,1.2692,1.2692,0,1.237,1.2375,1.2412,1.2427,1.2431,1.2455,1.2468,1.2487,1.2493,1.252,1.2526,1.2536,1.256,1.2566,1.2596,1.2598,1.2633,1.2632,1.2627,1.2627,1.2647,1.2644,1.2712,1.272,1.2667,1.2667,1.2668,0,1.232,1.235,1.2356,1.2377,1.241,1.2412,1.2444,1.2453,1.2467,1.2489,1.2486,1.2506,1.2512,1.2533,1.2537,1.2568,1.2574,1.2577,1.2578,1.2578,1.2577,1.2587,1.2584,1.2581,1.2581,1.258,1.258,0,1.2264,1.2305,1.2339,1.2349,1.2371,1.2387,1.2397,1.2414,1.2428,1.2448,1.2458,1.2481,1.2494,1.2512,1.2517,1.2504,1.2556,1.2539,1.2559,1.2559,1.2572,1.2571,1.2628,1.258,1.258,1.258,1.2579,0,1.2226,1.2246,1.2296,1.2313,1.2324,1.2348,1.2371,1.2393,1.2411,1.2416,1.2432,1.2432,1.2461,1.2443,1.2483,1.2464,1.2476,1.2483,1.2485,1.2488,1.2469,1.2499,1.2554,1.2559,1.2489,1.2489,1.2488,0,1.2158,1.2212,1.2216,1.2264,1.2289,1.2284,1.231,1.2328,1.2336,1.2358,1.2368,1.2395,1.2383,1.2393,1.2411,1.2423,1.2447,1.242,1.2451,1.2452,1.2445,1.2495,1.2501,1.2541,1.2479,1.2479,1.248,0,1.2109,1.2137,1.2146,1.2158,1.2183,1.2206,1.2236,1.2264,1.2278,1.23,1.2325,1.2364,1.2357,1.2374,1.2378,1.2397,1.243,1.2387,1.2388,1.2393,1.2475,1.2481,1.2487,1.2428,1.243,1.2431,1.2473,0,1.2045,1.2075,1.2099,1.2129,1.2148,1.2181,1.219,1.2209,1.221,1.2219,1.2257,1.2277,1.2307,1.2318,1.2321,1.2363,1.2358,1.2351,1.2335,1.2368,1.2382,1.2388,1.2313,1.2312,1.2312,1.2312,0,0,1.198,1.2023,1.2029,1.206,1.2077,1.2074,1.2107,1.2123,1.2157,1.2168,1.2159,1.2218,1.2236,1.2282,1.2293,1.2306,1.2314,1.2304,1.2353,1.2357,1.2361,1.2376,1.2382,1.2311,1.2311,1.2311,1.2311,0,1.1959,1.1977,1.2011,1.2028,1.2053,1.2063,1.207,1.2096,1.2104,1.2144,1.2142,1.2167,1.2217,1.2234,1.2249,1.2297,1.2296,1.2306,1.2328,1.2349,1.2354,1.2358,1.2374,1.238,1.231,1.231,1.231,0,1.1911,1.193,1.1948,1.1988,1.2006,1.2035,1.202,1.2052,1.2073,1.2072,1.2111,1.2125,1.215,1.2194,1.2214,1.2207,1.2278,1.2259,1.2261,1.2264,1.2286,1.2292,1.2297,1.2228,1.2227,1.2227,0,0,1.1892,1.1921,1.1945,1.1985,1.1996,1.2011,1.2029,1.2033,1.2057,1.2067,1.2084,1.2107,1.2135,1.2154,1.2182,1.2229,1.2234,1.2248,1.2252,1.2255,1.226,1.2282,1.2288,1.2226,1.2226,1.2226,0,0,1.1884,1.1912,1.191,1.1959,1.1981,1.2008,1.2032,1.203,1.2057,1.2055,1.2065,1.2072,1.2113,1.2127,1.2108,1.2177,1.2162,1.2167,1.2167,1.2172,1.2176,1.2172,1.2098,0,0,0,0,0,1.187,1.1908,1.1906,1.1916,1.1969,1.2008,1.2015,1.2024,1.2012,1.203,1.2044,1.2042,1.2118,1.2101,1.2111,1.2133,1.2209,1.2212,1.2215,1.2226,1.2231,1.2236,0,0,0,0,0,0,1.1874,1.1886,1.1905,1.1933,1.1946,1.2007,1.1988,1.1992,1.201,1.2009,1.2039,1.2043,1.2052,1.2097,1.2106,1.2126,1.2095,1.221,1.2213,1.2215,1.2228,1.2232,1.2236,0,0,0,0,0,1.1877,1.1887,1.197,1.1933,1.1943,1.1964,1.1987,1.199,1.2004,1.2028,1.2032,1.2009,1.2052,1.2061,1.2102,1.2122,1.2089,1.2092,1.2212,1.2214,1.2216,1.223,0,0,0,0,0,0,1.188,1.189,1.1973,1.1976,1.192,1.1961,1.1968,1.1988,1.2022,1.2026,1.1998,1.1997,1.2053,1.2059,1.2065,1.212,1.2084,1.2087,1.2089,1.2213,1.2215,1.2216,0,0,0,0,0,0,1.1885,1.1893,1.1974,1.1958,1.1959,1.1958,1.1964,1.2002,1.2023,1.1991,1.1991,1.1997,1.2044,1.2059,1.2063,1.2122,1.208,1.2083,1.2086,1.2087,1.2215,1.2216,0,0,0,0,0,0,1.1888,1.1895,1.1957,1.1958,1.1959,1.1999,1.1991,1.2046,1.2008,1.1989,1.2004,1.2003,1.2044,1.2049,1.2062,1.2119,1.2121,1.208,1.2082,1.2084,1.2085,0,0,0,0,0,0,0,1.1891,1.1842,1.1952,1.1958,1.196,1.2008,1.2009,1.201,1.2007,1.2006,1.2005,1.2004,1.2062,1.2066,1.2069,1.2116,0,0,1.208,1.2082,0,0,0,0,0,0,0,0,1.1839,1.1841,1.1952,1.1953,1.1953,1.2009,1.2009,1.201,1.2007,1.2006,1.2005,1.2004,1.2063,1.2066,1.2069,0,0,0,0,0,0,0,0,0,0,0,0,0,0,0,1.1952,1.1953,0,1.2009,1.2009,1.201,1.2007,1.2006,1.2005,1.2004,1.2064,1.2066,1.2069,0,0,0,0,0,0,0,0,0,0,0,0,0,0,0,0,0,0,0,0,0,0,0,0,0,0,0,0,0,0,0,0,0,0,0,0,0,0,0,0,0,0,0,0,0,0,0,0,0,0,0,0,0,0,0,0,0,0,0,0,0,0,0,0,0,0,0,0,0]}]]]